Kill Devil Hills, NC

8:57 AM EST on November 24, 2017 (GMT -0500)
First Flight

Weather History for KFFA - February, 2013

Change the Weather History Date:

Thursday, February 28, 2013

  Actual Average (KMQI) Record (KMQI)
Temperature  
Mean Temperature 44 °F -  
Max Temperature 48 °F 53 °F 77 °F (1976)
Min Temperature 41 °F 39 °F 22 °F (1978)
Degree Days  
Heating Degree Days 20    
Moisture  
Dew Point 35 °F    
Average Humidity 70    
Maximum Humidity 93    
Minimum Humidity 48    
Precipitation  
Precipitation 0.00 in - - ()
Sea Level Pressure  
Sea Level Pressure 29.70 in    
Wind  
Wind Speed 8 mph (West)    
Max Wind Speed 15 mph    
Max Gust Speed 23 mph    
Visibility 10 miles    
Events      
Averages and records for this station are not official NWS values.
T = Trace of Precipitation, MM = Missing Value Source: NWS Daily Summary

Daily Weather History Graph

Daily Weather History Graph

Search for Another Location

Airport or City:

Trip Planner

Search our weather history database for the weather conditions in past years. The results will help you decide how hot, cold, wet, or windy it might be!

Date:

Astronomy

Feb. 28, 2013 Rise Set
Actual Time 6:33 AM EST 5:56 PM EST
Civil Twilight 6:08 AM EST 6:22 PM EST
Nautical Twilight 5:38 AM EST 6:52 PM EST
Astronomical Twilight 5:08 AM EST 7:22 PM EST
Moon 9:12 PM EST (2/28) 7:49 AM EST (2/28)
Length of Visible Light 12h 14m
Length of Day
11h 23m
Waning Gibbous, 91% of the Moon is Illuminated
Feb 28
Waning Gibbous
Mar 4
Last Quarter
Mar 11
New
Mar 19
First Quarter
Mar 27
Full

Hourly Weather History & Observations

Time (EST) Temp. Windchill Dew Point Humidity Pressure Visibility Wind Dir Wind Speed Gust Speed Precip Events Conditions
12:15 AM 45.0 °F 42.6 °F 42.8 °F 92% 29.70 in 10.0 mi SSW 4.6 mph - N/A   Clear
12:35 AM 44.8 °F 41.6 °F 42.6 °F 92% 29.70 in 10.0 mi SW 5.8 mph - N/A   Clear
12:55 AM 44.6 °F 41.4 °F 42.4 °F 92% 29.70 in 10.0 mi SSW 5.8 mph - N/A   Clear
1:15 AM 44.6 °F 41.4 °F 42.6 °F 93% 29.70 in 10.0 mi SW 5.8 mph - N/A   Scattered Clouds
1:35 AM 45.0 °F 42.6 °F 42.8 °F 92% 29.69 in 10.0 mi SSW 4.6 mph - N/A   Overcast
2:15 AM 44.4 °F 40.5 °F 42.1 °F 91% 29.68 in 10.0 mi SSW 6.9 mph - N/A   Scattered Clouds
2:35 AM 44.6 °F 40.7 °F 42.1 °F 91% 29.67 in 10.0 mi SW 6.9 mph - N/A   Mostly Cloudy
2:55 AM 44.6 °F 41.4 °F 41.9 °F 90% 29.67 in 10.0 mi SW 5.8 mph - N/A   Mostly Cloudy
3:15 AM 44.1 °F 40.8 °F 41.5 °F 91% 29.66 in 10.0 mi SW 5.8 mph - N/A   Scattered Clouds
3:35 AM 43.9 °F 40.5 °F 41.4 °F 91% 29.66 in 10.0 mi SW 5.8 mph - N/A   Scattered Clouds
3:55 AM 43.3 °F 39.9 °F 41.2 °F 92% 29.66 in 10.0 mi SW 5.8 mph - N/A   Scattered Clouds
4:15 AM 43.5 °F 39.4 °F 41.0 °F 91% 29.67 in 10.0 mi SW 6.9 mph - N/A   Mostly Cloudy
4:55 AM 43.5 °F 38.9 °F 40.8 °F 90% 29.68 in 10.0 mi WSW 8.1 mph - N/A   Scattered Clouds
5:35 AM 43.5 °F 38.9 °F 40.5 °F 89% 29.67 in 10.0 mi WSW 8.1 mph - N/A   Scattered Clouds
5:55 AM 43.2 °F 39.0 °F 40.3 °F 90% 29.68 in 10.0 mi WSW 6.9 mph - N/A   Clear
6:15 AM 42.8 °F 38.0 °F 39.7 °F 89% 29.68 in 10.0 mi West 8.1 mph - N/A   Clear
6:35 AM 42.8 °F 38.0 °F 39.4 °F 88% 29.68 in 10.0 mi West 8.1 mph - N/A   Clear
6:55 AM 42.8 °F 39.3 °F 39.4 °F 88% 29.69 in 10.0 mi West 5.8 mph - N/A   Clear
7:15 AM 43.2 °F 39.7 °F 39.2 °F 86% 29.69 in 10.0 mi West 5.8 mph - N/A   Clear
7:35 AM 44.1 °F 40.1 °F 39.2 °F 83% 29.70 in 10.0 mi West 6.9 mph - N/A   Clear
7:55 AM 45.1 °F 40.3 °F 38.7 °F 78% 29.70 in 10.0 mi West 9.2 mph 16.1 mph N/A   Clear
8:15 AM 45.5 °F 39.9 °F 38.3 °F 76% 29.71 in 10.0 mi West 11.5 mph 16.1 mph N/A   Clear
8:35 AM 45.9 °F 40.4 °F 37.2 °F 72% 29.70 in 10.0 mi West 11.5 mph 17.3 mph N/A   Clear
8:55 AM 46.6 °F - 37.2 °F 70% 29.70 in 10.0 mi West 12.7 mph 19.6 mph N/A   Scattered Clouds
9:15 AM 46.9 °F - 36.9 °F 68% 29.70 in 10.0 mi West 11.5 mph 16.1 mph N/A   Scattered Clouds
9:35 AM 46.9 °F - 36.5 °F 67% 29.70 in 10.0 mi West 9.2 mph 18.4 mph N/A   Scattered Clouds
9:55 AM 47.1 °F - 36.3 °F 66% 29.70 in 10.0 mi West 10.4 mph 18.4 mph N/A   Mostly Cloudy
10:15 AM 47.1 °F - 35.6 °F 64% 29.70 in 10.0 mi West 9.2 mph 18.4 mph N/A   Overcast
10:35 AM 46.4 °F 41.5 °F 35.8 °F 67% 29.71 in 10.0 mi West 10.4 mph 19.6 mph N/A   Overcast
10:55 AM 46.2 °F 40.8 °F 35.6 °F 66% 29.70 in 10.0 mi West 11.5 mph - N/A   Overcast
11:15 AM 46.4 °F 41.1 °F 35.4 °F 66% 29.70 in 10.0 mi West 11.5 mph 17.3 mph N/A   Overcast
11:35 AM 47.1 °F - 34.3 °F 61% 29.70 in 10.0 mi West 10.4 mph 18.4 mph N/A   Overcast
11:55 AM 47.5 °F - 32.0 °F 55% 29.69 in 10.0 mi West 10.4 mph - N/A   Overcast
12:15 PM 47.8 °F - 31.6 °F 53% 29.69 in 10.0 mi West 12.7 mph 19.6 mph N/A   Overcast
12:55 PM 48.2 °F - 32.0 °F 54% 29.68 in 10.0 mi West 10.4 mph 23.0 mph N/A   Overcast
1:15 PM 48.2 °F - 31.6 °F 53% 29.67 in 10.0 mi West 11.5 mph 19.6 mph N/A   Overcast
1:35 PM 47.5 °F - 30.6 °F 52% 29.66 in 10.0 mi West 12.7 mph 17.3 mph N/A   Overcast
1:55 PM 47.1 °F - 30.9 °F 53% 29.67 in 10.0 mi West 13.8 mph 18.4 mph N/A   Overcast
2:15 PM 46.8 °F - 29.5 °F 51% 29.67 in 10.0 mi West 15.0 mph 19.6 mph N/A   Overcast
2:35 PM 46.0 °F 40.2 °F 27.5 °F 48% 29.67 in 10.0 mi West 12.7 mph 18.4 mph N/A   Overcast
2:55 PM 45.9 °F 41.7 °F 28.9 °F 52% 29.67 in 10.0 mi West 8.1 mph - N/A   Overcast
3:15 PM 46.0 °F 41.4 °F 29.5 °F 52% 29.67 in 10.0 mi West 9.2 mph 17.3 mph N/A   Overcast
3:35 PM 45.9 °F 40.0 °F 29.7 °F 53% 29.67 in 10.0 mi West 12.7 mph 20.7 mph N/A   Overcast
3:55 PM 45.7 °F 40.6 °F 29.8 °F 54% 29.67 in 10.0 mi West 10.4 mph 19.6 mph N/A   Overcast
4:15 PM 45.7 °F 39.1 °F 29.3 °F 53% 29.68 in 10.0 mi West 15.0 mph 21.9 mph N/A   Overcast
4:35 PM 45.5 °F 40.3 °F 29.7 °F 54% 29.68 in 10.0 mi West 10.4 mph 18.4 mph N/A   Overcast
4:55 PM 45.3 °F 39.0 °F 30.2 °F 56% 29.68 in 10.0 mi West 13.8 mph 18.4 mph N/A   Overcast
5:15 PM 45.1 °F 38.8 °F 30.6 °F 57% 29.69 in 10.0 mi West 13.8 mph 21.9 mph N/A   Overcast
5:35 PM 45.0 °F 39.3 °F 31.1 °F 58% 29.69 in 10.0 mi West 11.5 mph 19.6 mph N/A   Overcast
5:55 PM 45.0 °F 39.3 °F 32.0 °F 60% 29.70 in 10.0 mi West 11.5 mph 18.4 mph N/A   Overcast
6:15 PM 45.0 °F 40.1 °F 32.4 °F 61% 29.71 in 10.0 mi West 9.2 mph 16.1 mph N/A   Overcast
6:35 PM 44.8 °F 40.4 °F 33.3 °F 64% 29.72 in 10.0 mi WNW 8.1 mph - N/A   Overcast
6:55 PM 43.7 °F - 34.2 °F 69% 29.73 in 10.0 mi Calm Calm - N/A   Overcast
7:15 PM 43.7 °F 38.6 °F 34.0 °F 69% 29.73 in 10.0 mi West 9.2 mph - N/A   Overcast
7:35 PM 44.2 °F 39.7 °F 33.3 °F 65% 29.73 in 10.0 mi West 8.1 mph - N/A   Mostly Cloudy
7:55 PM 44.2 °F 39.2 °F 34.0 °F 67% 29.74 in 10.0 mi West 9.2 mph - N/A   Mostly Cloudy
8:15 PM 44.6 °F 39.2 °F 34.5 °F 68% 29.75 in 10.0 mi West 10.4 mph - N/A   Overcast
8:35 PM 44.2 °F 40.3 °F 34.7 °F 69% 29.76 in 10.0 mi West 6.9 mph - N/A   Overcast
8:55 PM 43.9 °F 39.3 °F 33.8 °F 68% 29.76 in 10.0 mi West 8.1 mph 16.1 mph N/A   Scattered Clouds
9:15 PM 43.5 °F 39.4 °F 32.9 °F 66% 29.77 in 10.0 mi West 6.9 mph - N/A   Clear
9:35 PM 43.2 °F 39.7 °F 32.0 °F 65% 29.76 in 10.0 mi West 5.8 mph - N/A   Clear
9:55 PM 43.0 °F 38.2 °F 32.0 °F 65% 29.77 in 10.0 mi West 8.1 mph - N/A   Clear
10:15 PM 42.8 °F 39.3 °F 32.0 °F 66% 29.77 in 10.0 mi West 5.8 mph - N/A   Clear
10:35 PM 42.8 °F 38.0 °F 31.5 °F 64% 29.77 in 10.0 mi West 8.1 mph - N/A   Clear
10:55 PM 42.4 °F 36.5 °F 30.4 °F 62% 29.76 in 10.0 mi West 10.4 mph 17.3 mph N/A   Clear
11:15 PM 42.3 °F 37.3 °F 28.4 °F 58% 29.76 in 10.0 mi WNW 8.1 mph 17.3 mph N/A   Clear
11:35 PM 41.9 °F 36.3 °F 28.2 °F 58% 29.76 in 10.0 mi WNW 9.2 mph 18.4 mph N/A   Clear
11:55 PM 41.7 °F 35.2 °F 28.4 °F 59% 29.76 in 10.0 mi WNW 11.5 mph 17.3 mph N/A   Clear